Вернуться в каталог

CHECKMATE 7

АктивенВоенныеPO
NORAD 56166·PAYLOAD·🇺🇸 United States

Запущен Apr 2, 2023 с Vandenberg Space Force Base

Loading…

Ближайшие Пролёты (ближайшие 24 часа)

TLE

СвежийSource: Space-Track

Эпоха: Sep 14, 2026, 04:36 UTC

1 56166U 23050E   26257.19191390  .00000148  00000-0  11134-3 0  9995
2 56166  81.0042 345.2973 0021994  67.4140 292.9343 13.89451017174464

Отслеживайте CHECKMATE 7 в реальном времени с AllMySat

Download on the App Store